CW6238 Weather Reports


Display with metric or nautical units.
time (UTC)temp
F
wind
direction
speed
MPH
gust
MPH
rain 1hr
in
rain 24hr
in
rain mn
in
humidity
%
barometer
mb
20260504050518 40 0.0 2.0 0.10 0.14 0.14 92 999.9
20260504045518 40 0.0 0.0 0.10 0.12 0.12 92 1000.1
20260504044520 40 0.0 0.0 0.09 0.10 0.10 91 1000.2
20260504043520 40 0.0 0.0 0.09 0.09 0.09 91 1000.1
20260504042518 40 0.0 0.0 0.06 0.07 0.06 90 1000.1
20260504041519 40 0.0 0.0 0.06 0.06 0.06 89 1000.2
20260504040520 40 0.0 1.0 0.04 0.05 0.04 87 1000.1
20260504035520 41 0.0 0.0 0.02 0.02 0.02 85 1000.2
20260504034518 41 0.0 0.0 0.01 0.02 0.01 83 1000.1
20260504033540 41 0.0 0.0 0.00 0.01 0.00 81 1000.2
20260504032520 42 0.0 0.0 0.00 0.01 0.00 79 1000.2
20260504031524 42 0.0 2.0 0.00 0.01 0.00 77 1000.5
20260504030518 42 0.0 0.0 0.00 0.01 0.00 77 1000.6
20260504025520 42 0.0 0.0 0.00 0.01 0.00 76 1000.9
20260504024520 42 0.0 0.0 0.00 0.01 0.00 75 1001.2
20260504023520 42 0.0 0.0 0.00 0.01 0.00 75 1001.4
20260504022520 42 0.0 0.0 0.00 0.01 0.00 75 1001.4
20260504021540 42 0.0 0.0 0.00 0.01 0.00 74 1001.3
20260504020603 42 0.0 0.0 0.00 0.01 0.00 74 1001.3
20260504015520 42 0.0 0.0 0.00 0.01 0.00 74 1001.4
20260504014600 42 0.0 1.0 0.00 0.01 0.00 75 1001.5
20260504013520 42 0.0 0.0 0.00 0.01 0.00 75 1001.6
20260504012540 42 0.0 0.0 0.00 0.01 0.00 76 1001.6
20260504011520 42 0.0 0.0 0.00 0.01 0.00 75 1001.7
20260504010520 42 0.0 0.0 0.00 0.01 0.00 75 1001.9
20260504005520 42 0.0 2.0 0.00 0.01 0.00 75 1001.9
20260504004520 42 0.0 1.0 0.00 0.01 0.00 75 1002.1
20260504003520 43 0.0 0.0 0.00 0.01 0.00 74 1002.2
20260504002519 43 0.0 1.0 0.00 0.01 0.00 74 1002.3
20260504001520 43 0.0 1.0 0.00 0.01 0.00 75 1002.4
20260504000520 43 0.0 1.0 0.00 0.01 0.00 75 1002.4
20260503235520 43 0.0 0.0 0.00 0.01 0.00 76 1002.5
20260503234520 43 0.0 0.0 0.00 0.01 0.00 79 1002.8
20260503233520 43 0.0 0.0 0.00 0.01 0.00 80 1002.7
20260503232520 43 0.0 0.0 0.00 0.01 0.00 82 1002.8
20260503231519 43 0.0 2.0 0.00 0.01 0.00 82 1002.9
20260503230520 43 0.0 2.0 0.00 0.01 0.00 83 1003.0
20260503225520 43 0.0 0.0 0.00 0.01 0.00 83 1003.1
20260503224520 43 0.0 0.0 0.00 0.01 0.00 82 1003.1
20260503223524 43 0.0 0.0 0.00 0.01 0.00 82 1003.2
20260503222523 43 135 1.0 4.0 0.00 0.01 0.00 82 1003.3
20260503221523 43 0.0 1.0 0.00 0.01 0.00 83 1003.4
20260503220540 44 135 1.0 3.0 0.00 0.01 0.00 83 1003.3
20260503215523 44 0.0 2.0 0.00 0.01 0.01 84 1003.4
20260503214540 44 0.0 0.0 0.00 0.01 0.01 85 1003.4
20260503213520 44 0.0 2.0 0.00 0.01 0.01 85 1003.5
20260503212520 44 0.0 1.0 0.00 0.01 0.01 85 1003.5
20260503211519 44 0.0 0.0 0.00 0.01 0.01 85 1003.7
20260503210543 44 0.0 2.0 0.00 0.01 0.01 85 1003.7
20260503205519 44 0.0 0.0 0.00 0.01 0.01 85 1003.8
20260503204519 44 0.0 0.0 0.00 0.01 0.01 84 1003.8
20260503203539 45 0.0 1.0 0.00 0.01 0.01 84 1003.7
20260503202540 45 113 1.0 2.0 0.00 0.01 0.01 83 1003.7
20260503201540 45 0.0 1.0 0.00 0.01 0.01 83 1003.8
20260503200520 45 0.0 2.0 0.00 0.01 0.01 83 1003.8
20260503195519 45 0.0 0.0 0.00 0.01 0.01 82 1004.0
20260503194519 45 0.0 1.0 0.00 0.01 0.01 82 1003.9
20260503193520 45 113 1.0 2.0 0.00 0.01 0.01 82 1003.8
20260503192519 45 0.0 0.0 0.00 0.01 0.01 82 1004.0
20260503191519 45 0.0 3.0 0.00 0.01 0.01 81 1003.9
20260503190519 45 113 1.0 3.0 0.00 0.01 0.01 81 1003.9
20260503185519 45 0.0 0.0 0.00 0.01 0.01 81 1004.0
20260503184519 46 0.0 0.0 0.00 0.01 0.01 81 1003.9
20260503183519 46 0.0 1.0 0.00 0.01 0.01 81 1003.9
20260503182519 46 0.0 1.0 0.00 0.01 0.01 81 1003.9
20260503181519 46 0.0 0.0 0.00 0.01 0.01 80 1003.9
20260503180519 46 0.0 1.0 0.00 0.01 0.01 79 1003.9
20260503175519 47 45 1.0 3.0 0.00 0.01 0.01 79 1003.8
20260503174519 47 0.0 2.0 0.00 0.01 0.01 80 1004.0
20260503173519 46 68 1.0 3.0 0.00 0.01 0.01 80 1003.9
20260503172540 46 45 1.0 3.0 0.00 0.01 0.01 80 1004.0
20260503171539 46 45 1.0 2.0 0.00 0.01 0.01 80 1004.1
20260503170519 46 23 1.0 2.0 0.00 0.01 0.01 79 1004.1
20260503150519 46 45 2.0 6.0 0.00 0.01 0.01 76 1004.4
20260503130519 47 45 2.0 5.0 0.00 0.01 0.01 74 1005.1
20260503110519 46 45 2.0 4.0 0.00 0.01 0.01 73 1005.5
20260503081518 45 45 2.0 6.0 0.00 0.01 0.01 85 1005.0
20260503080519 45 45 2.0 6.0 0.00 0.01 0.01 85 1004.9
20260503072518 45 45 1.0 3.0 0.00 0.01 0.01 88 1004.8
20260503071518 45 45 1.0 6.0 0.00 0.01 0.01 89 1004.7
20260503070519 45 45 1.0 5.0 0.00 0.01 0.01 90 1004.5
20260503054518 45 45 2.0 4.0 0.00 0.01 0.01 92 1004.4
20260503053519 45 45 2.0 5.0 0.00 0.01 0.01 92 1004.3
20260503052520 45 45 2.0 6.0 0.01 0.01 0.01 92 1004.3
20260503051521 45 23 1.0 4.0 0.01 0.01 0.01 92 1004.3